Weather in Andreyevka

Russia / Ulyanovsk Oblast     52°57′55″N   47°04′40″E
temp.,
°C
wind,
m/s
gust,
m/s
humid.,
%
clouds,
%
prec.,
mm/h
press.,
hPa
HPBL,
m
8 august, mon
mon801:00+18ese11615 0.0 101911
04:00+18ese11594 0.0 102011
07:00+20ene116110 0.0 102028
10:00+26ene22424 0.0 1020498
13:00+29ene233153 0.0 10203025
16:00+29nne233129 0.0 10192839
19:00+23se115458 0.0 101923
22:00+20ne11565 0.0 102011
9 august, tue
tue901:00+19ene11595 0.0 102011
04:00+18n116180 0.0 102011
07:00+19nne116397 0.0 102022
10:00+26ne23444 0.0 1020526
13:00+29ne2333100 0.0 10192386
16:00+29ene223554 0.0 10192344
19:00+23ene235792 0.0 101967
22:00+22e115423 0.0 101913
10 august, wed
wed1001:00+20se116451 0.0 101911
04:00+19se11685 0.0 101911
07:00+20se116724 0.0 101916
10:00+27sse114699 0.0 1019655
13:00+30e0133100 0.0 10182144
16:00+30ne123299 0.0 10172630
19:00+25ese1149100 0.0 101831
22:00+20n2272100 0.0 101919
11 august, thu
thu1101:00+19n2276100 0.0 101918
04:00+17n3786100 0.0 1019166
07:00+18n3886100 0.0 1021268
10:00+21n4566100 0.3 1021599
13:00+24n454599 0.0 10211031
16:00+25nne454082 0.0 10211276
19:00+22nne47505 0.0 1021569
22:00+16ne38690 0.0 1023171
12 august, fri
fri1201:00+14ne26740 0.0 102494
04:00+12ene22755 0.0 102429
07:00+14ne12675 0.0 102569
10:00+21ne224577 0.0 1025845
13:00+24n12378 0.0 10241594
16:00+25nw23345 0.0 10221828
19:00+22nnw25505 0.0 1022144
22:00+17nnw22620 0.0 102311